Regional Weather Roundup
Issued by NWS

Home | Current Version | Previous Version | Text Only | Print | Product List | Glossary Off
Versions: 1 2 3 4 5 6 7 8 9 10 11 12 13 14 15 16 17 18 19 20 21 22 23 24 25 26 27 28 29 30 31 32 33 34 35 36 37 38 39 40 41 42 43 44 45 46 47 48 49 50

000
ASUS43 KDMX 210801
RWRIA

WEATHER ROUNDUP FOR IOWA
NATIONAL WEATHER SERVICE DES MOINES IA
200 AM CST WED FEB 21 2018

NOTE: "FAIR" INDICATES FEW OR NO CLOUDS BELOW 12,000 FEET WITH NO
SIGNIFICANT WEATHER AND/OR OBSTRUCTIONS TO VISIBILITY.

* - THESE STATIONS ARE NOT NWS STATIONS...THUS NOT UNDER NWS
QUALITY CONTROL.  THEY ALSO DO NOT REPORT WEATHER SUCH
AS PRECIPITATION OR FOG.

IAZ001>003-012>014-020>022-031>034-043>046-210900-
   NORTHWEST IOWA

CITY           SKY/WX    TMP DP  RH WIND       PRES   REMARKS
CARROLL *      CLOUDY    10   5  79 NW10      30.48R WCI  -3
CHEROKEE *     CLEAR      6   2  85 NW7       30.49R WCI  -6
DENISON *      CLEAR      9   5  85 NW12      30.50R WCI  -6
LE MARS *      CLEAR      3  -2  78 W6        30.51R WCI  -8
ORANGE CITY *  CLEAR      1   0  92 W3        30.47R
SHELDON *      CLEAR      1  -2  85 W7        30.45R WCI -11
SIOUX CITY     CLEAR      4   0  83 W3        30.53R
SPENCER        MIX PCPN   4  -1  80 W6        30.47R WCI  -7
STORM LAKE *   CLEAR      7   1  78 NW9       30.46R WCI  -7
$$

IAZ055>058-069>071-079>083-090>094-210900-
   SOUTHWEST IOWA

CITY           SKY/WX    TMP DP  RH WIND       PRES   REMARKS
ATLANTIC *     CLOUDY    10   7  85 N12       30.48R WCI  -4
AUDUBON *      CLOUDY    10   5  79 N8        30.47R WCI  -1
CLARINDA *     CLOUDY    14   9  79 N14       30.51R WCI  -1
COUNCIL BLFS * CLEAR     10   7  85 N9        30.50R WCI  -2
CRESTON *      CLOUDY    12   9  85 N13G18    30.45R WCI  -3
HARLAN  *      CLEAR     10   7  85 N13       30.52R WCI  -5
LAMONI         PTCLDY    16  10  77 N16       30.42R WCI   1
RED OAK *      CLOUDY    12   7  79 N8        30.50R WCI   1
SHENANDOAH *   CLEAR     12   7  79 N9G15     30.51R WCI   0
$$

IAZ047>049-059>061-072>074-084-210900-
   CENTRAL IOWA

CITY           SKY/WX    TMP DP  RH WIND       PRES   REMARKS
AMES           PTCLDY    14   7  73 N14       30.46R WCI  -1
ANKENY *       CLOUDY    14   9  79 N14G21    30.48R WCI  -1
BOONE *        PTCLDY    12   7  79 MISG      30.45R
CHARITON *     PTCLDY    16  12  86 NW16      30.43R WCI   0
DES MOINES     MOCLDY    15   9  76 NW13      30.46R WCI   1
GRINNELL*      CLOUDY    16  12  84 NW17      30.42R WCI   0
KNOXVILLE *    MOCLDY    16  10  79 NW16G22   30.42R WCI   0
MARSHALLTOWN   PTCLDY    14   8  77 NW16      30.43R WCI  -2
NEWTON *       MOCLDY    16  10  79 N17G23    30.44R WCI   0
PELLA *        CLOUDY    17  11  79 N12       30.46R WCI   4
$$

IAZ004>006-015-016-023>025-035-036-210900-
   NORTH CENTRAL IOWA

CITY           SKY/WX    TMP DP  RH WIND       PRES   REMARKS
CLARION *      CLOUDY    10   9  92 NW14      30.46R WCI  -5
ESTHERVILLE    CLEAR      3  -1  83 W9        30.44R WCI -12
FORT DODGE *   CLOUDY     8   4  83 NW5       30.47R WCI   0
MASON CITY     CLOUDY     9   3  77 NW13      30.44R WCI  -7
FOREST CITY *  FAIR      10   5  79 NW7       30.44R WCI   0
WEBSTER CITY * CLOUDY    10   3  72 NW10      30.44R WCI  -3
IOWA FALLS *   FAIR      13   8  79 NW10      30.45R WCI   0
$$

IAZ007>011-017>019-026>030-037>042-050>054-066-210900-
   NORTHEAST IOWA

CITY           SKY/WX    TMP DP  RH WIND       PRES   REMARKS
CEDAR RAPIDS   FAIR      19  12  74 NW15      30.38R WCI   5
CHARLES CITY * FAIR      12   9  85 NW15G24   30.43R WCI  -4
CLINTON *        N/A     24  19  81 NW14      30.35  WCI  12
DECORAH *      FAIR      12   9  85 NW14      30.38R WCI  -3
DUBUQUE        FAIR      19  12  74 N15       30.33R WCI   5
MONTICELLO *   FAIR      19  12  73 NW15      30.38R WCI   5
OELWEIN *      FAIR      14  14 100 NW17      30.40R WCI  -3
WATERLOO       FAIR      13   7  77 NW17      30.43R WCI  -4
$$

IAZ064-065-067-068-078-210900-
   EAST CENTRAL IOWA

CITY           SKY/WX    TMP DP  RH WIND       PRES   REMARKS
DAVENPORT      CLOUDY    24  16  71 NW16      30.36R WCI  11
IOWA CITY      MOCLDY    21  12  68 NW13      30.41R WCI   9
MT. PLEASANT * CLOUDY    21  16  79 NW10      30.39R WCI  10
MUSCATINE *    FAIR      23  16  74 NW17      30.39R WCI   9
QUAD CITIES    MOCLDY    24  16  71 NW12      30.34R WCI  13
$$

IAZ062-063-075>077-085>089-095>099-210900-
   SOUTHEAST IOWA

CITY           SKY/WX    TMP DP  RH WIND       PRES   REMARKS
BURLINGTON     CLOUDY    23  16  74 NW12      30.37R WCI  12
FAIRFIELD *    CLOUDY    21  14  73 NW17      30.40R WCI   7
FORT MADISON * CLOUDY    23  18  80 N14G21    30.39R WCI  11
KEOKUK *       CLOUDY    23  18  80 N10G18    30.38R WCI  12
OSKALOOSA *    FAIR      18  13  82 N13       30.43R WCI   5
OTTUMWA        CLOUDY    19  12  74 NW18      30.41R WCI   4
WASHINGTON *   CLOUDY    21  18  86 NW17      30.41R WCI   7
$$

ABBREVIATIONS USED IN REMARKS
   TC - TEMPERATURES IN CELSIUS
  WCI - WIND CHILL INDEX
   HX - HEAT INDEX
  VSB - VISIBILITY
$$





USA.gov is the U.S. government's official web portal to all federal, state and local government web resources and services.